Flag for Netherlands Weather past 2 weeks in Maastricht, Netherlands

Now
72 °F

Mild.


Feels Like: 76 °F
Forecast: 56 / 76 °F
Wind: 2 mph from North

Location: Maastricht Airport Zuid Limburg

Current Time: Sep 16, 2014 at 6:10:22 PM

Latest Report: Sep 16, 2014 at 5:55 PM


Visibility: N/A

Pressure: 29.92 "Hg

Humidity: 61%

Dew point: 57 °F

Location of MaastrichtLocation

Historic Weather in Maastricht — Graph

°F

Maastricht temperature yesterday

Maximum temperature yesterday: 70 °F (at 1:55 PM)
Minimum temperature yesterday: 52 °F (at 7:25 AM)
Average temperature yesterday: 62 °F

Past Weeks' High & Low Weather Summary

 TemperatureHumidityPressure
High73 °F (Sep 5, 4:25 PM)100% (Sep 3, 12:55 AM)30.27 "Hg (Sep 3, 12:55 AM)
Low46 °F (Sep 12, 5:25 AM)56% (Sep 1, 5:55 PM)29.89 "Hg (Sep 6, 4:55 PM)
Average61 °F82%30.08 "Hg
* Reported Sep 1 4:25 PM — Sep 16 4:55 PM, Maastricht, Weather by CustomWeather, © 2014

Note: Actual official high and low records may vary slightly from our data, if they occured in-between our weather recording intervals... More about our weather records

Advertising

Maastricht weather history for previous 24 hours

 ConditionsComfort  
Time TempWeatherWind HumidityBarometerVisibility
4:55 PM
Sep 16
73 °FPassing clouds.5 mph57%29.92 "HgN/A
4:25 PM73 °FClear.3 mph57%29.95 "HgN/A
3:55 PM72 °FScattered clouds.3 mph61%29.95 "HgN/A
3:25 PM72 °FMild.5 mph61%29.95 "HgN/A
2:55 PM73 °FMild.6 mph57%29.95 "HgN/A
2:25 PM72 °FPassing clouds.6 mph61%29.95 "HgN/A
1:25 PM70 °FPartly sunny.2 mph69%29.98 "HgN/A
12:55 PM70 °FPartly sunny.2 mph69%29.98 "HgN/A
12:25 PM68 °FOvercast.1 mph73%29.98 "HgN/A
11:55 AM66 °FOvercast.2 mph83%29.98 "Hg5 mi
11:25 AM66 °FOvercast.5 mph83%29.98 "Hg5 mi
10:55 AM64 °FOvercast.5 mph83%29.98 "Hg4 mi
10:25 AM63 °FOvercast.5 mph88%29.98 "Hg4 mi
9:55 AM61 °FOvercast.3 mph94%29.98 "Hg4 mi
9:25 AM61 °FOvercast.3 mph88%29.98 "Hg4 mi
8:55 AM59 °FOvercast.1 mph94%29.98 "Hg4 mi
8:25 AM59 °FFog.1 mph94%29.98 "Hg3 mi
7:55 AM57 °FPassing clouds.1 mph100%29.98 "Hg4 mi
7:25 AM57 °FFog.2 mph94%29.98 "Hg2 mi
6:55 AM55 °FCool.2 mph100%29.98 "Hg4 mi
6:25 AM55 °FOvercast.2 mph94%29.98 "Hg4 mi
5:55 AM55 °FCool.3 mph100%29.98 "Hg4 mi
5:25 AM57 °FCool.2 mph94%29.98 "Hg5 mi
4:55 AM59 °FClear.1 mph94%29.98 "HgN/A
4:25 AM61 °FClear.2 mph88%29.98 "HgN/A
3:55 AM63 °FClear.3 mph83%29.98 "Hg6 mi
3:25 AM61 °FClear.5 mph88%29.98 "Hg5 mi
2:55 AM61 °FClear.5 mph88%29.98 "Hg5 mi
2:25 AM59 °FClear.5 mph94%29.98 "Hg4 mi
1:55 AM59 °FClear.5 mph94%29.98 "Hg4 mi
1:25 AM59 °FClear.5 mph94%29.98 "HgN/A
12:55 AM59 °FClear.3 mph94%29.98 "Hg6 mi
12:25 AM61 °FClear.3 mph88%29.98 "HgN/A
11:55 PM
Sep 15
61 °FClear.5 mph88%29.98 "HgN/A
11:25 PM61 °FCool.3 mph88%29.98 "HgN/A
10:55 PM61 °FCool.5 mph88%29.98 "HgN/A
10:25 PM63 °FMild.6 mph83%29.98 "HgN/A
9:55 PM63 °FClear.6 mph83%29.98 "HgN/A
9:25 PM63 °FClear.7 mph83%29.98 "HgN/A
8:55 PM63 °FMild.6 mph83%29.98 "HgN/A
8:25 PM64 °FMild.7 mph78%29.98 "HgN/A
7:55 PM66 °FMild.7 mph73%29.98 "HgN/A
7:25 PM68 °FMild.8 mph69%29.98 "HgN/A
6:55 PM70 °FMild.6 mph64%29.98 "HgN/A
6:25 PM70 °FMild.8 mph64%29.98 "HgN/A
Weather by CustomWeather, © 2014

See weather overviewHow to use our weather pages